USA 159 (DSP 21)

Last updated on Thu Nov 21 2024 00:02:40 GMT+0000 (Coordinated Universal Time)

1 26880U 01033A 24325.07099654 -.00000300 00000+0 00000+0 0 9999 2 26880 12.2424 20.2999 0001727 249.8505 125.8661 1.00275577 27217
UTC large
Height (km)
Speed (km/s)
/
Latitude / Longitude
Inclination (degrees)
Orbital Period (minutes)
Azimuth
Elevation
Range (km)
Doppler Factor

Next 0 passes for location: London (51.5072 / 0.1276)

Sorry there are no passes over London.